Location: Pine Mountain Observatory
(43.7910°N, 120.9377°W)
Time: 04:53:59
(UTC-07:00)

Tiangong 2 - Visible Passes

Search period start: 20 May 2018 00:00
Search period end: 30 May 2018 00:00
Orbit: 382 x 386 km, 42.8° (Epoch: 20 May)

Date Brightness Start Highest point End Pass type
(mag) Time Alt. Az. Time Alt. Az. Time Alt. Az.
21 May 2.4 21:35:39 10° SSW 21:38:06 21° SSE 21:39:02 18° SE visible
22 May 1.3 22:11:44 10° WSW 22:14:46 45° SSE 22:15:19 40° SE visible
23 May 1.9 21:12:14 10° SW 21:15:04 31° SSE 21:17:54 10° E visible
23 May 1.3 22:48:27 10° W 22:51:06 57° SW 22:51:06 57° SW visible
24 May 1.0 21:48:43 10° WSW 21:51:49 60° S 21:54:19 15° E visible
24 May 3.1 23:25:20 10° W 23:26:32 21° W 23:26:32 21° W visible
25 May 0.9 22:25:32 10° W 22:28:40 75° S 22:29:32 43° ESE visible
26 May 1.0 21:25:44 10° W 21:28:51 72° S 21:32:00 10° E visible
26 May 2.0 23:02:24 10° W 23:04:36 38° WSW 23:04:36 38° WSW visible
27 May 1.0 22:02:35 10° W 22:05:42 69° S 22:07:24 24° ESE visible
27 May 3.9 23:39:27 10° W 23:39:35 11° W 23:39:35 11° W visible
28 May 1.6 22:39:29 10° W 22:42:20 41° SSW 22:42:20 41° SSW visible
29 May 1.2 21:39:37 10° W 21:42:42 57° SSW 21:45:03 16° ESE visible
29 May 3.7 23:16:47 10° WSW 23:17:14 12° WSW 23:17:14 12° WSW visible
